This is the latest recevied weather packets stored in our database for station/object KY4EF. If no packets are shown the sender has not sent any weather packets the latest 10 day(s).
| Time | Temp. | Humidity | Pressure | Rain* | Wind** | Luminosity | Snow |
|---|---|---|---|---|---|---|---|
| 1778029617 | 18.89° C | 51% | 1011.9 hPa | 0 mm | - | 0 W/m² | - |
| 1778029314 | 18.89° C | 53% | 1011.8 hPa | 0 mm | - | 0 W/m² | - |
| 1778029011 | 18.89° C | 51% | 1012.2 hPa | 0 mm | - | 0 W/m² | - |
| 1778028707 | 18.89° C | 51% | 1011.9 hPa | 0 mm | - | 0 W/m² | - |
| 1778028403 | 18.89° C | 52% | 1012.2 hPa | 0 mm | - | 0 W/m² | - |
| 1778028101 | 18.89° C | 51% | 1012.3 hPa | 0 mm | - | 0 W/m² | - |
| 1778027797 | 19.44° C | 52% | 1012.4 hPa | 0 mm | - | 0 W/m² | - |
| 1778027493 | 19.44° C | 53% | 1012.3 hPa | 0 mm | - | 1 W/m² | - |
| 1778027190 | 19.44° C | 50% | 1012.3 hPa | 0 mm | - | 1 W/m² | - |
| 1778026886 | 19.44° C | 51% | 1012.2 hPa | 0 mm | - | 2 W/m² | - |
| 1778026582 | 20° C | 50% | 1011.9 hPa | 0 mm | - | 3 W/m² | - |
| 1778026279 | 20° C | 52% | 1011.9 hPa | 0 mm | - | 4 W/m² | - |
| 1778025977 | 20° C | 49% | 1011.7 hPa | 0 mm | - | 5 W/m² | - |
| 1778025674 | 20.56° C | 49% | 1012 hPa | 0 mm | - | 6 W/m² | - |
| 1778025372 | 20.56° C | 49% | 1011.9 hPa | 0 mm | - | 8 W/m² | - |
| 1778025068 | 20.56° C | 49% | 1011.9 hPa | 0 mm | - | 10 W/m² | - |
| 1778024765 | 20.56° C | 50% | 1011.5 hPa | 0 mm | - | 15 W/m² | - |
| 1778024462 | 20.56° C | 50% | 1011.7 hPa | 0 mm | - | 16 W/m² | - |
| 1778024160 | 20.56° C | 49% | 1011.7 hPa | 0 mm | - | 18 W/m² | - |
| 1778023857 | 21.11° C | 47% | 1011.7 hPa | 0 mm | - | 22 W/m² | - |
| 1778023555 | 21.11° C | 48% | 1011.6 hPa | 0 mm | - | 30 W/m² | - |
| 1778023252 | 21.11° C | 49% | 1011.6 hPa | 0 mm | - | 22 W/m² | - |
| 1778022948 | 21.11° C | 48% | 1011.6 hPa | 0 mm | - | 19 W/m² | - |
| 1778022648 | 21.11° C | 47% | 1011.5 hPa | 0 mm | - | 33 W/m² | - |
| 1778022344 | 21.11° C | 48% | 1011.6 hPa | 0 mm | - | 60 W/m² | - |
* Rain latest hour (hover to see other rain measurements)
** Current wind speed in m/s (hover to see current wind gust speed)